Regional Weather Roundup
Issued by NWS

Home | Current Version | Previous Version | Text Only | Print | Product List | Glossary On
Versions: 1 2 3 4 5 6 7 8 9 10 11 12 13 14 15 16 17 18 19 20 21 22 23 24 25 26 27 28 29 30 31 32 33 34 35 36 37 38 39 40 41 42 43 44 45 46 47 48 49 50
000
ASUS44 KLIX 270201
RWRLA
LOUISIANA WEATHER ROUNDUP
NATIONAL WEATHER SERVICE NEW ORLEANS LA
900 PM CDT TUE AUG 26 2014

NOTE: "FAIR" INDICATES FEW OR NO CLOUDS BELOW 12,000 FEET WITH NO
      SIGNIFICANT WEATHER AND/OR OBSTRUCTIONS TO VISIBILITY.
      SKY/WX - SKY CONDITION AND SIGNIFICANT WEATHER.
      TMP - AIR TEMPERATURE.    DP   - DEWPOINT TEMPERATURE.
      RH  - RELATIVE HUMIDITY.  PRES - PRESSURE.
      HX  - HEAT INDEX.         WCI  - WIND CHILL INDEX.

*  THESE STATIONS ARE NOT NWS OR FAA STATIONS AND ARE NOT UNDER
   NWS QUALITY CONTROL.

LAZ040-048-061>063-065-066-069-270300-
SOUTHEAST LOUISIANA

CITY           SKY/WX    TMP DP  RH WIND       PRES   REMARKS
N.O. AUDUBON     N/A     84  73  67 MISG        N/A
N.O. INTL ARPT MOCLDY    83  71  67 E7        29.96S
N.O. LAKEFRONT CLOUDY    83  73  72 E10       29.97S
N.O. DOWNTOWN* FAIR      82  70  65 CALM      29.97S
SLIDELL        CLOUDY    78  74  87 E3        29.97R
BATON ROUGE    MOCLDY    80  74  81 CALM      29.97R
BOOTHVILLE     MOCLDY    83  76  79 E10       29.96R
BELLE CHASSE   CLOUDY    81  71  71 E6        29.96R
BOGALUSA*      FAIR      79  69  70 CALM      30.00R
GALLIANO*      NOT AVBL
NEW ROADS*     FAIR      78  72  82 CALM      29.98R
GONZALES*      FAIR      78  78 100 CALM      29.96R
HAMMOND*       NOT AVBL
HOUMA*         CLOUDY    78  71  78 NE3       29.96R
PORT FOURCHON* CLEAR     82  73  74 E12       29.96S

$$

LAZ041-044-053-054-270300-
SOUTHWEST LOUISIANA

CITY           SKY/WX    TMP DP  RH WIND       PRES   REMARKS
LAKE CHARLES   CLOUDY    81  74  79 E7        29.96R
LAFAYETTE      MOCLDY    80  76  87 CALM      29.97R
PATTERSON        N/A     77  75  94 CALM      29.99R
SALT POINT       N/A     80  77  90 CALM      29.95R
NEW IBERIA     CLOUDY    79  77  94 CALM      29.97S
CHENAULT AIRPK CLEAR     81  73  78 CALM      29.97

$$

LAZ027-028-270300-
CENTRAL LOUISIANA

CITY           SKY/WX    TMP DP  RH WIND       PRES   REMARKS
FORT POLK      MOCLDY    82  69  64 E6        29.98R
ALEXANDRIA INT MOCLDY    81  68  64 NE6       29.97R
ALEXANDRIA     MOCLDY    75  71  87 CALM      29.99R

$$

LAZ001-002-270300-
NORTHWEST LOUISIANA

CITY           SKY/WX    TMP DP  RH WIND       PRES   REMARKS
SHREVEPORT     PTCLDY    85  70  60 E6        29.99R
BARKSDALE AFB  PTCLDY    81  70  69 E3        29.99R
DTN SHREVEPORT PTCLDY    84  70  62 NE3       29.99R

$$

LAZ014-016-270300-
NORTHEAST LOUISIANA

CITY           SKY/WX    TMP DP  RH WIND       PRES   REMARKS
MONROE         CLEAR     76  68  76 CALM      30.01R
TALLULAH       MOCLDY    73  69  87 SE5       30.01R

$$




USA.gov is the U.S. government's official web portal to all federal, state and local government web resources and services.